Zurück zum Katalog

NAVIGATOR

AktivAmateurfunkSSO
NORAD 69888·PAYLOAD·🇺🇸 United States
Dieser Satellitenname wurde noch nicht durch offizielle Quellen bestätigt.

Gestartet Jul 7, 2026 von Vandenberg Space Force Base

Loading…

Nächste Überflüge (nächste 24 Stunden)

TLE

AktuellSource: Space-Track

Epoche: Sep 14, 2026, 04:17 UTC

1 69888U 26156V   26257.17872861  .00001451  00000-0  15047-3 0  9992
2 69888  97.7485 156.4653 0003250 285.0817  75.0042 14.91510114 10109

Verfolge NAVIGATOR in Echtzeit mit AllMySat

Download on the App Store